Wind_Speed
15 14 14 13 13 14 13 9 9 9 9 9 9 9 9 10 10 11 11 11 10 9 7 6 4 4 3 3 3 4 5 5 6 6 7 7 8 8 8 8 8 8 9 9 9 9 9 8 8
15 14 13 12 11 13 9 9 8 8 8 8 8 9 9 10 10 10 11 11 11 10 9 8 6 5 3 3 2 2 2 3 3 4 5 5 6 6 6 7 7 7 8 8 8 7 7 7 7
15 13 13 11 10 12 11 9 8 7 7 7 7 8 8 9 9 9 10 10 10 11 10 9 9 8 6 4 3 2 2 1 1 1 2 3 3 4 4 5 5 5 6 6 6 6 6 7 7
14 13 12 10 11 11 9 9 8 7 6 6 7 7 7 8 8 8 8 9 9 10 10 9 9 9 8 7 5 4 4 2 1 0 1 2 3 3 3 4 4 5 5 6 6 7 7 7 8
13 12 10 10 10 9 8 7 7 7 6 6 6 7 7 7 7 7 7 8 8 8 8 8 8 8 8 7 6 5 4 4 3 2 2 2 3 3 4 4 5 5 6 6 7 7 8 8 8
12 11 10 10 9 8 7 6 6 5 5 4 5 5 5 6 6 6 6 6 7 7 7 7 7 7 7 7 6 6 5 4 4 3 3 3 3 4 5 5 5 6 6 6 7 8 8 8 8
12 10 9 9 9 8 7 5 5 4 4 3 3 3 3 4 4 4 5 5 5 5 6 6 6 6 6 6 6 5 5 4 4 4 4 4 5 5 5 6 6 7 7 8 8 9 9 10 10
13 11 10 9 8 8 6 5 4 3 3 2 2 2 2 3 3 3 4 4 4 5 5 5 6 6 6 6 6 6 5 5 5 6 6 6 6 7 7 8 8 9 9 10 10 10 11 12 12
15 13 12 11 10 8 7 6 4 3 3 2 1 1 1 2 2 3 3 4 4 5 5 6 6 7 7 7 7 7 7 7 7 8 8 8 8 8 9 9 10 10 11 11 12 12 13 13 13
18 16 16 14 12 10 9 8 6 5 4 3 1 1 1 2 2 3 4 4 5 6 6 7 8 8 8 8 9 9 9 9 9 10 10 10 10 10 11 11 11 12 12 13 14 14 15 15 16
21 20 20 17 14 13 11 10 8 7 5 3 3 3 2 2 3 4 4 5 5 6 7 8 9 10 10 10 11 11 11 11 11 12 12 12 12 13 13 13 13 14 15 15 16 17 18 18 19
24 24 23 20 19 17 15 13 11 9 7 5 5 4 4 3 3 4 5 5 6 7 8 9 10 11 12 12 13 13 13 13 14 14 14 14 15 15 15 16 16 16 17 18 19 19 20 21 21
27 26 25 24 23 20 18 16 14 13 10 8 7 6 5 4 4 4 5 6 7 8 9 10 11 12 14 15 15 16 16 16 16 16 17 17 17 18 18 19 19 19 20 21 21 22 22 23 24
27 27 27 26 25 23 22 20 17 16 13 11 10 8 7 6 5 5 6 7 8 9 10 11 12 14 15 16 17 18 19 19 19 19 19 20 20 20 21 21 22 22 23 24 24 25 25 26 26
28 29 29 28 27 26 25 22 20 20 16 14 13 11 10 9 8 8 8 8 9 10 11 12 14 15 16 17 18 19 20 21 21 22 22 22 23 23 23 24 24 25 25 26 27 27 28 29 29
30 30 30 29 29 29 28 24 24 22 20 18 16 14 13 12 11 11 10 10 11 12 13 13 15 16 17 18 20 20 21 22 23 24 24 25 25 25 25 26 26 27 28 28 29 30 30 31 32
30 30 30 31 31 31 30 26 27 25 23 20 19 17 16 15 15 14 14 14 14 14 15 16 17 18 18 19 20 21 22 23 24 25 26 26 27 27 27 28 28 29 30 30 31 32 32 33 34
30 31 32 33 32 32 32 29 30 28 25 23 21 20 18 18 18 18 17 17 17 17 18 18 19 20 21 21 22 22 23 24 25 26 26 27 28 29 29 29 30 31 32 32 33 33 34 35 36
34 34 33 35 33 33 34 32 31 30 28 25 23 22 21 21 21 20 20 19 19 20 21 21 22 23 23 23 23 24 24 25 26 26 27 28 29 30 31 31 32 32 33 34 34 35 36 37 38
36 35 35 36 35 35 36 34 32 32 29 27 26 25 24 24 24 24 23 22 22 22 23 24 24 25 25 25 26 26 27 27 27 28 29 30 31 32 32 32 33 34 35 36 36 37 38 39 40
38 38 37 37 38 37 38 36 33 32 32 30 28 27 27 27 27 27 26 25 25 26 26 27 27 27 28 28 29 29 30 30 30 31 32 33 34 34 34 34 35 36 37 37 38 39 41 42 43
41 40 39 40 41 40 41 41 34 34 34 31 30 30 30 30 30 30 30 29 29 29 30 30 30 31 31 32 32 32 33 33 33 34 34 35 36 37 37 37 37 38 39 40 41 42 43 44 45
43 43 42 43 44 44 42 45 38 35 35 33 32 33 34 34 34 34 34 34 33 33 34 34 34 34 35 35 35 36 37 37 37 36 36 37 38 39 39 39 40 40 41 42 43 44 45 46 47
46 46 46 47 48 47 44 47 44 38 37 36 35 35 37 38 38 38 38 39 38 38 38 38 38 38 39 40 40 40 41 41 41 40 38 39 40 41 41 42 42 43 44 44 45 46 47 47 48
49 49 50 50 51 50 48 49 48 45 41 40 39 39 39 40 41 42 43 43 43 43 42 42 43 43 43 44 44 44 45 45 45 44 42 41 42 43 44 44 45 45 46 46 47 47 48 48 49
50 51 52 52 54 53 54 53 49 50 48 45 44 44 44 44 45 46 46 47 47 47 47 47 47 47 47 47 48 48 48 48 48 47 46 44 44 45 46 47 47 47 48 48 49 49 49 49 50
53 54 52 53 56 58 58 55 52 51 52 51 50 49 49 48 48 49 50 50 50 50 50 50 51 51 51 51 51 51 51 50 50 50 49 47 47 47 48 49 49 49 50 50 50 50 50 50 50
55 53 52 55 58 60 61 58 55 55 56 57 57 56 54 53 52 52 53 53 53 53 53 53 53 54 54 54 54 54 53 52 51 51 51 50 49 49 50 51 51 51 51 51 51 51 51 51 51
54 54 56 57 58 60 63 61 57 57 58 59 60 59 58 57 55 54 53 53 54 54 55 55 55 56 56 56 56 55 54 53 53 52 52 52 51 51 51 51 52 52 52 52 51 51 51 51 51
56 56 57 59 60 62 64 63 59 58 59 60 61 60 60 60 59 58 56 56 56 56 56 56 57 57 57 57 56 55 54 53 52 52 51 52 52 52 52 52 52 52 52 53 53 52 52 52 52
Wind_Direction
130 127 123 119 121 99 86 83 77 72 70 68 69 71 74 77 77 81 82 82 84 87 94 107 120 136 146 164 181 197 208 217 224 234 240 246 248 253 261 266 271 275 278 282 284 287 288 289 291
134 131 127 127 124 96 99 93 82 75 71 68 67 68 69 72 72 74 75 76 77 79 81 84 90 100 113 132 151 174 190 206 223 236 244 253 257 261 267 274 276 278 281 284 285 287 288 290 292
138 135 132 132 114 111 108 100 91 80 73 68 66 64 64 65 65 66 68 69 70 72 74 76 76 78 81 87 95 99 112 135 188 223 248 260 270 277 279 281 283 283 284 286 287 288 290 291 293
144 142 139 136 115 110 108 102 96 88 77 69 64 62 60 59 58 59 60 63 64 64 66 69 70 70 71 70 70 70 69 69 74 38 286 286 286 288 290 292 293 293 293 293 292 291 291 292 294
153 151 147 136 122 120 117 110 103 97 87 73 65 62 59 56 54 52 50 52 56 57 58 59 61 63 62 62 61 59 55 48 39 18 350 328 313 308 305 302 300 299 296 294 294 294 294 295 296
164 163 161 148 141 136 132 124 115 105 96 80 67 60 56 52 50 47 43 41 42 46 47 48 49 50 50 48 48 46 41 34 20 3 343 328 314 307 305 303 301 300 299 299 298 297 297 296 296
179 177 176 162 155 153 150 145 133 120 106 88 72 61 50 42 37 35 33 31 28 28 28 29 30 30 31 29 27 24 19 9 356 343 331 321 314 309 305 302 300 300 300 298 296 295 294 294 294
195 196 193 185 178 175 172 170 161 147 124 105 83 64 40 24 14 10 8 7 5 3 3 3 4 4 3 2 359 354 348 339 330 323 317 313 309 305 302 300 297 296 296 295 293 292 292 293 293
210 209 211 206 201 198 196 195 192 181 168 161 134 73 30 2 356 349 343 338 335 335 336 337 339 340 340 338 335 331 326 321 316 312 308 305 302 300 298 296 295 293 293 292 292 292 292 292 292
220 218 221 221 218 217 216 217 215 212 203 202 213 245 289 307 320 326 331 330 326 323 321 320 320 322 323 322 321 318 315 313 310 306 304 301 299 298 296 294 293 292 291 290 290 290 290 290 290
224 223 228 230 228 227 228 229 228 227 221 222 235 256 269 286 300 308 316 321 322 320 317 316 314 312 312 311 311 309 308 307 306 303 301 298 297 296 294 293 292 291 290 290 290 289 289 288 288
227 227 231 232 232 233 233 234 235 237 233 233 236 246 263 277 293 306 312 315 317 317 317 316 312 309 308 306 305 304 303 301 300 299 297 296 295 294 293 293 292 291 290 290 290 289 289 289 288
229 230 232 232 234 235 235 236 237 241 237 236 239 241 254 267 286 302 312 317 318 318 318 316 313 310 307 305 303 301 300 299 297 296 294 293 292 291 291 291 291 291 291 291 291 291 291 290 290
232 232 233 234 235 236 236 236 238 242 240 238 241 244 249 260 277 293 306 316 321 321 320 317 314 312 309 306 303 301 299 297 295 294 293 292 290 290 289 290 290 291 291 291 292 292 292 292 292
233 233 234 234 235 236 237 236 237 241 242 242 243 247 253 260 271 283 297 310 318 323 324 322 319 317 313 309 306 303 299 297 295 293 291 291 290 289 289 289 289 290 291 291 291 292 292 292 292
235 235 236 235 236 236 238 235 238 240 242 243 245 249 255 262 270 279 290 301 311 317 320 322 322 321 317 314 310 305 301 298 294 292 290 289 288 288 288 287 287 288 288 289 290 291 291 291 291
237 238 238 236 236 237 238 235 239 240 242 243 246 250 256 263 270 277 286 295 302 309 313 317 320 320 319 317 314 310 304 299 295 292 290 288 286 286 286 286 286 286 286 287 287 288 289 290 290
239 239 238 239 236 238 239 237 239 240 242 243 246 250 256 264 270 276 284 289 295 302 307 311 315 317 317 316 315 312 307 302 297 293 290 288 286 285 284 284 284 285 285 286 287 288 288 288 289
240 241 241 242 240 240 241 239 239 242 242 243 246 250 256 263 270 275 280 285 290 296 301 305 310 313 314 314 313 311 308 304 299 293 289 287 285 284 283 284 284 285 286 286 287 287 287 288 288
244 244 243 244 244 243 243 241 239 243 244 243 245 250 256 262 268 273 277 282 287 291 296 300 304 308 310 310 311 311 308 304 298 293 288 285 284 284 284 284 285 285 285 286 287 287 287 287 287
244 245 244 245 246 245 247 244 241 242 244 245 246 250 256 262 267 272 276 279 283 288 292 296 299 302 304 305 307 308 307 304 299 292 288 285 284 284 284 284 284 285 285 286 287 287 287 287 287
246 246 246 246 248 247 248 250 240 243 245 246 249 252 256 261 266 271 275 278 281 284 288 292 294 297 300 301 303 304 305 303 298 294 290 286 283 283 282 283 283 284 285 285 286 286 287 287 287
247 248 248 247 248 249 250 255 249 244 247 247 248 253 257 261 265 269 273 277 279 282 286 288 291 293 295 297 299 301 302 300 298 295 291 286 283 282 282 283 283 283 284 285 286 286 286 287 287
248 248 248 248 249 251 252 256 257 250 248 248 247 251 257 262 265 268 271 275 278 281 283 285 287 290 292 294 295 297 299 298 297 295 291 286 283 283 282 282 282 283 284 284 285 285 286 286 286
248 249 250 250 251 253 254 255 259 259 254 252 251 251 253 258 263 267 270 273 276 279 281 282 284 286 288 290 292 294 295 295 294 293 290 286 283 282 281 281 282 283 284 284 284 284 285 285 285
247 249 251 253 253 253 253 255 257 261 262 260 258 257 257 258 261 264 267 270 273 275 277 279 281 283 285 287 289 291 292 292 291 290 288 285 282 281 280 281 282 282 283 283 284 284 284 284 284
246 248 251 253 254 254 253 255 257 261 264 265 264 263 263 263 263 265 267 268 271 273 275 277 279 281 283 284 286 288 288 288 288 287 286 284 281 279 279 279 280 281 281 282 283 283 284 284 284
248 249 247 250 253 255 256 256 258 259 262 265 266 267 267 267 267 267 268 269 270 271 273 275 276 278 280 282 284 286 286 286 285 284 283 282 280 279 279 279 279 280 281 282 282 283 283 283 283
248 249 250 252 253 256 257 257 258 261 264 266 268 270 272 273 273 272 271 271 271 272 273 274 276 278 279 281 283 284 284 284 283 282 281 280 279 279 279 278 279 279 280 280 281 281 282 282 282
250 249 250 251 253 255 257 258 260 262 265 267 270 272 273 275 276 277 276 276 275 275 275 276 277 278 279 280 281 281 281 282 282 281 279 278 278 278 278 278 279 279 280 280 281 281 282 282 282
Height
5855 5856 5857 5859 5860 5859 5859 5860 5860 5860 5860 5859 5859 5859 5859 5859 5860 5861 5859 5858 5858 5859 5859 5859 5860 5861 5862 5862 5863 5864 5865 5866 5867 5868 5869 5870 5871 5872 5873 5874 5874 5874 5875 5875 5876 5876 5876 5876 5876
5856 5857 5859 5860 5859 5859 5861 5861 5861 5862 5862 5861 5861 5861 5861 5861 5860 5860 5860 5860 5860 5860 5860 5861 5861 5862 5862 5863 5864 5864 5865 5866 5867 5868 5869 5870 5871 5871 5872 5873 5873 5874 5874 5874 5874 5875 5875 5875 5875
5857 5858 5860 5861 5860 5860 5861 5862 5863 5863 5863 5863 5863 5863 5863 5863 5862 5862 5862 5862 5862 5862 5862 5862 5863 5863 5864 5864 5865 5865 5866 5867 5868 5868 5869 5870 5870 5871 5871 5872 5873 5873 5873 5873 5873 5874 5874 5874 5874
5858 5860 5861 5862 5861 5862 5863 5863 5864 5864 5864 5864 5864 5864 5864 5864 5864 5864 5864 5864 5864 5864 5864 5864 5864 5865 5865 5865 5866 5866 5867 5868 5868 5869 5869 5870 5870 5871 5871 5872 5872 5872 5873 5873 5873 5873 5873 5873 5873
5858 5860 5862 5862 5862 5863 5864 5864 5865 5865 5865 5865 5865 5866 5865 5865 5865 5865 5865 5865 5865 5865 5865 5865 5866 5866 5866 5867 5867 5868 5868 5869 5869 5869 5870 5870 5870 5871 5871 5871 5871 5872 5872 5872 5872 5872 5872 5871 5871
5859 5860 5862 5861 5863 5864 5865 5865 5865 5866 5866 5866 5866 5867 5867 5867 5867 5867 5867 5867 5867 5867 5867 5867 5867 5867 5867 5868 5868 5868 5869 5869 5869 5870 5870 5870 5870 5871 5871 5871 5871 5871 5871 5871 5870 5870 5870 5870 5870
5859 5860 5861 5862 5863 5864 5866 5866 5866 5866 5867 5867 5867 5867 5868 5867 5867 5868 5868 5868 5868 5868 5868 5868 5868 5868 5868 5868 5869 5869 5869 5869 5870 5870 5870 5870 5870 5870 5870 5870 5870 5870 5870 5870 5869 5869 5869 5868 5868
5857 5860 5861 5862 5863 5865 5866 5866 5867 5867 5867 5868 5868 5868 5868 5868 5868 5868 5868 5868 5868 5868 5868 5868 5868 5868 5868 5868 5869 5869 5869 5869 5870 5870 5870 5870 5870 5870 5870 5870 5869 5869 5869 5868 5868 5867 5867 5867 5866
5856 5859 5860 5861 5862 5864 5865 5866 5867 5867 5867 5867 5868 5868 5868 5868 5868 5868 5868 5868 5869 5869 5869 5868 5868 5868 5868 5868 5868 5869 5869 5869 5869 5869 5869 5869 5869 5869 5869 5869 5868 5868 5867 5867 5866 5866 5865 5865 5864
5854 5857 5858 5859 5861 5863 5864 5865 5866 5867 5867 5867 5868 5868 5868 5868 5868 5868 5868 5868 5868 5868 5868 5868 5868 5868 5868 5868 5868 5868 5868 5868 5868 5868 5868 5868 5868 5868 5867 5867 5867 5866 5866 5865 5865 5864 5863 5863 5862
5852 5854 5855 5857 5859 5861 5863 5864 5865 5866 5866 5867 5867 5868 5868 5868 5868 5868 5868 5868 5868 5868 5868 5868 5867 5867 5867 5867 5867 5867 5867 5867 5867 5866 5866 5866 5866 5866 5865 5865 5865 5864 5864 5863 5862 5862 5861 5860 5859
5849 5851 5853 5856 5857 5859 5861 5862 5863 5864 5865 5866 5866 5867 5867 5867 5867 5867 5867 5867 5867 5867 5867 5867 5866 5866 5866 5865 5865 5865 5865 5865 5865 5865 5864 5864 5864 5863 5863 5862 5862 5862 5861 5860 5860 5859 5858 5857 5856
5844 5847 5850 5852 5854 5856 5858 5860 5861 5863 5863 5864 5865 5866 5866 5866 5867 5867 5867 5867 5866 5866 5866 5865 5865 5864 5864 5863 5863 5863 5862 5862 5862 5862 5862 5861 5861 5860 5860 5859 5859 5858 5858 5857 5856 5855 5854 5853 5852
5841 5843 5845 5848 5851 5853 5855 5857 5859 5860 5861 5862 5863 5864 5865 5865 5865 5866 5866 5866 5865 5865 5865 5864 5863 5863 5862 5861 5861 5860 5860 5859 5859 5859 5858 5858 5857 5857 5856 5856 5855 5855 5854 5853 5852 5851 5850 5849 5848
5836 5838 5841 5844 5847 5849 5851 5854 5856 5857 5858 5860 5861 5862 5863 5863 5864 5864 5864 5864 5864 5863 5863 5862 5861 5861 5860 5859 5858 5857 5856 5856 5855 5855 5854 5854 5853 5853 5852 5852 5851 5850 5849 5848 5847 5846 5845 5844 5843
5830 5833 5837 5840 5842 5844 5848 5851 5852 5853 5855 5857 5858 5859 5860 5861 5861 5862 5862 5862 5862 5861 5861 5860 5859 5858 5857 5856 5855 5854 5853 5852 5851 5850 5850 5849 5848 5848 5847 5847 5846 5845 5844 5843 5842 5841 5840 5838 5837
5825 5828 5831 5834 5836 5839 5842 5846 5847 5849 5851 5853 5855 5856 5857 5858 5858 5859 5859 5859 5859 5859 5858 5857 5856 5855 5854 5853 5852 5850 5849 5848 5847 5846 5845 5844 5843 5843 5842 5841 5840 5840 5839 5838 5837 5835 5834 5833 5831
5821 5823 5825 5827 5831 5833 5836 5840 5842 5844 5847 5850 5851 5853 5854 5854 5854 5855 5856 5856 5855 5855 5854 5854 5853 5852 5851 5849 5848 5847 5845 5844 5842 5841 5840 5839 5838 5837 5836 5835 5834 5833 5832 5831 5830 5829 5828 5826 5824
5813 5816 5819 5821 5825 5828 5830 5834 5837 5839 5842 5845 5847 5848 5850 5850 5850 5851 5851 5851 5851 5851 5850 5850 5849 5847 5846 5845 5844 5842 5841 5839 5838 5836 5835 5833 5832 5831 5830 5829 5828 5827 5826 5824 5823 5822 5820 5818 5817
5807 5810 5813 5815 5818 5821 5823 5827 5831 5834 5837 5840 5842 5844 5845 5845 5845 5846 5846 5847 5846 5846 5845 5845 5844 5843 5841 5840 5839 5837 5836 5834 5832 5830 5828 5827 5825 5824 5823 5822 5821 5820 5818 5817 5815 5814 5812 5810 5808
5800 5803 5806 5809 5810 5814 5816 5820 5826 5828 5830 5834 5837 5838 5839 5840 5840 5840 5840 5841 5841 5841 5840 5839 5838 5837 5836 5834 5833 5831 5830 5828 5826 5824 5822 5820 5818 5817 5816 5815 5814 5812 5810 5809 5807 5805 5803 5801 5799
5792 5796 5799 5801 5803 5805 5808 5809 5819 5822 5824 5828 5831 5832 5833 5833 5833 5833 5833 5834 5835 5834 5833 5833 5831 5830 5829 5827 5826 5825 5823 5821 5820 5817 5815 5813 5811 5809 5808 5806 5805 5803 5802 5800 5798 5796 5794 5791 5789
5784 5787 5790 5793 5794 5797 5801 5801 5809 5816 5818 5822 5825 5825 5825 5826 5826 5826 5826 5826 5827 5827 5826 5825 5824 5823 5822 5820 5819 5817 5816 5814 5811 5810 5808 5805 5803 5800 5799 5797 5796 5794 5792 5790 5788 5786 5783 5781 5779
5776 5778 5780 5782 5785 5789 5794 5794 5796 5806 5811 5814 5817 5818 5818 5818 5818 5818 5818 5818 5818 5819 5818 5817 5816 5815 5813 5812 5810 5809 5807 5804 5802 5801 5799 5797 5794 5791 5789 5787 5786 5784 5782 5780 5778 5775 5773 5771 5768
5766 5769 5771 5773 5776 5781 5784 5785 5789 5794 5800 5804 5807 5809 5810 5810 5809 5809 5809 5809 5809 5809 5809 5808 5807 5806 5804 5803 5801 5799 5797 5795 5793 5791 5789 5787 5785 5782 5779 5777 5775 5773 5771 5769 5767 5764 5762 5759 5756
5756 5758 5762 5764 5766 5771 5772 5776 5784 5784 5787 5792 5796 5798 5800 5800 5801 5801 5800 5800 5799 5799 5798 5798 5797 5796 5794 5793 5791 5789 5787 5785 5782 5780 5778 5776 5774 5771 5768 5766 5764 5762 5759 5757 5755 5753 5750 5748 5745
5744 5747 5751 5751 5753 5757 5761 5769 5774 5776 5777 5780 5783 5785 5787 5788 5789 5789 5789 5789 5789 5788 5788 5787 5786 5785 5783 5782 5780 5778 5776 5774 5771 5769 5766 5764 5762 5760 5757 5754 5752 5750 5747 5745 5743 5740 5738 5735 5733
5733 5737 5738 5738 5740 5743 5750 5758 5765 5767 5767 5767 5769 5770 5772 5775 5776 5776 5776 5776 5776 5776 5776 5775 5774 5773 5771 5770 5768 5766 5764 5762 5759 5756 5754 5752 5749 5747 5745 5742 5739 5737 5735 5732 5730 5728 5725 5722 5720
5722 5725 5726 5727 5730 5733 5736 5749 5755 5755 5755 5755 5756 5756 5757 5758 5759 5760 5762 5762 5762 5763 5762 5762 5761 5760 5758 5757 5755 5753 5751 5749 5746 5744 5741 5739 5736 5734 5732 5729 5727 5724 5722 5719 5717 5714 5712 5709 5707
5706 5711 5713 5714 5717 5720 5723 5737 5744 5745 5743 5742 5742 5743 5744 5743 5743 5744 5745 5746 5746 5747 5747 5747 5747 5746 5744 5743 5741 5739 5737 5735 5733 5730 5728 5725 5723 5720 5718 5716 5713 5711 5709 5706 5704 5701 5699 5696 5694